Weather reports worldwide

Advertisment
Macon, France (7385): temperature & dewpoint: 06.12.2018 00:00:00 - 12.12.2018 00:00:00 (CET)Macon, France (7385): temperature 5cm: 06.12.2018 00:00:00 - 12.12.2018 00:00:00 (CET)Macon, France (7385): temperature -20cm & temperature -100cm: 06.12.2018 00:00:00 - 12.12.2018 00:00:00 (CET)Macon, France (7385): wind speed & gusts: 06.12.2018 00:00:00 - 12.12.2018 00:00:00 (CET)Macon, France (7385): wind direction: 06.12.2018 00:00:00 - 12.12.2018 00:00:00 (CET)Macon, France (7385): reduced air pressure: 06.12.2018 00:00:00 - 12.12.2018 00:00:00 (CET)Macon, France (7385): visibility: 06.12.2018 00:00:00 - 12.12.2018 00:00:00 (CET)Macon, France (7385): sunshine duration: 06.12.2018 00:00:00 - 12.12.2018 00:00:00 (CET)Macon, France (7385): precipitation: 06.12.2018 00:00:00 - 12.12.2018 00:00:00 (CET)
Date & Time tt [°C] td [°C] tt 5cm [°C] tt -20cm [°C] tt -100cm [°C] ff [km/h] ff [kn] fx [km/h] fx [kn] dd ppp [hPa] vv [km] sd [min] rr [mm]
12.12.2018 00:00:00 0,5 -2,4 -1,2 8,3 11,5 8 5 16 9 NW 1024,6 20 0 0,0
11.12.2018 23:00:00 0,6 -2,5 -1,1 8,4 11,5 8 4 15 8 NW 1024,6 20 0 0,0
11.12.2018 22:00:00 1,4 -2,0 -0,8 8,4 11,5 10 5 14 8 NW 1024,7 20 0 0,0
11.12.2018 21:00:00 1,4 -1,7 -1,1 8,5 11,5 8 4 16 9 NW 1024,6 20 0 0,0
11.12.2018 20:00:00 3,0 -1,4 1,1 8,6 11,4 10 5 17 9 NNW 1024,5 20 0 0,0
11.12.2018 19:00:00 3,3 -0,9 1,2 8,6 11,5 10 5 17 9 N 1024,5 20 0 0,0
11.12.2018 18:00:00 3,4 -0,1 1,2 8,6 11,5 11 6 14 8 N 1024,6 20 0 0,0
11.12.2018 17:00:00 5,0 0,2 2,9 8,6 11,5 9 5 23 12 N 1024,5 20 9 0,0
11.12.2018 16:00:00 6,8 0,7 6,5 8,6 11,5 18 10 28 15 NNE 1024,3 20 30 0,0
11.12.2018 15:00:00 7,8 0,0 7,8 8,6 11,5 17 9 28 15 N 1024,6 20 39 0,0
11.12.2018 14:00:00 8,0 -0,3 8,0 8,6 11,5 11 6 27 15 N 1024,8 20 29 0,0
11.12.2018 13:00:00 8,4 2,2 7,8 8,5 11,5 13 7 26 14 NNW 1025,1 20 42 0,0
11.12.2018 12:00:00 8,2 2,8 9,2 8,5 11,5 13 7 24 13 NNW 1025,8 20 49 0,0
11.12.2018 11:00:00 8,0 3,5 9,2 8,6 11,5 11 6 18 10 N 1026,2 20 60 0,0
11.12.2018 10:00:00 6,5 3,6 5,7 8,6 11,5 8 4 12 6 WNW 1026,2 20 42 0,0
11.12.2018 09:00:00 5,7 3,5 3,9 8,7 11,5 4 2 8 4 NW 1026,5 20 18 0,0
11.12.2018 08:00:00 4,6 3,1 3,0 8,7 11,5 5 3 9 5 N 1026,7 20 0 0,0
11.12.2018 07:00:00 4,5 2,8 2,4 8,7 11,5 6 3 8 4 NW 1026,9 20 0 0,0
11.12.2018 06:00:00 5,1 3,3 4,1 8,8 11,5 5 3 16 8 WNW 1027,1 20 0 0,0
11.12.2018 05:00:00 5,8 3,3 5,2 8,8 11,5 6 3 19 10 NW 1027,2 20 0 0,0
11.12.2018 04:00:00 5,8 3,3 5,3 8,8 11,5 16 8 26 14 NW 1027,1 20 0 0,0
11.12.2018 03:00:00 5,9 3,4 5,4 8,9 11,5 17 9 25 13 NW 1027,4 20 0 0,0
11.12.2018 02:00:00 6,1 3,4 5,7 8,9 11,5 13 7 20 11 NW 1027,5 20 0 0,0
11.12.2018 01:00:00 6,2 3,4 4,8 9,0 11,5 16 8 23 12 NW 1027,9 20 0 0,0
11.12.2018 00:00:00 6,0 3,2 5,0 9,0 11,5 9 5 21 12 NW 1028,1 20 0 0,0
10.12.2018 23:00:00 6,3 3,3 5,3 9,1 11,5 13 7 20 11 NW 1028,4 20 0 0,0
10.12.2018 22:00:00 6,3 2,9 4,3 9,1 11,5 9 5 17 9 NW 1028,4 20 0 0,0
10.12.2018 21:00:00 6,2 2,8 5,0 9,1 11,5 7 4 19 11 NNW 1028,7 20 0 0,0
10.12.2018 20:00:00 6,7 3,3 5,7 9,2 11,5 11 6 26 14 WNW 1029,0 20 0 0,0
10.12.2018 19:00:00 6,8 3,4 5,4 9,1 11,5 10 6 19 10 NW 1029,1 20 0 0,0
10.12.2018 18:00:00 7,0 3,4 5,8 9,1 11,5 13 7 27 15 WNW 1028,6 20 0 0,0
10.12.2018 17:00:00 7,7 4,3 6,6 9,1 11,5 15 8 23 13 WNW 1028,7 20 20 0,0
10.12.2018 16:00:00 9,0 4,2 8,7 9,1 11,5 16 9 32 17 WNW 1028,2 20 57 0,0
10.12.2018 15:00:00 8,7 4,7 8,2 9,0 11,5 16 9 31 17 WNW 1028,1 20 28 0,0
10.12.2018 14:00:00 8,3 4,5 7,9 9,0 11,5 13 7 34 18 NW 1028,3 20 35 0,0
10.12.2018 13:00:00 8,2 4,8 6,9 9,0 11,5 16 8 36 19 WNW 1028,9 20 12 0,2
10.12.2018 12:00:00 9,2 5,4 7,1 9,0 11,5 20 11 30 16 WNW 1029,1 20 28 0,0
10.12.2018 11:00:00 8,3 5,0 6,8 9,0 11,5 19 10 33 18 NW 1029,4 19 8 0,0
10.12.2018 10:00:00 8,0 5,1 6,6 9,0 11,5 12 6 34 19 NW 1029,3 18 13 0,2
10.12.2018 09:00:00 7,8 4,7 6,2 9,0 11,5 14 8 32 17 WNW 1028,6 20 16 0,0
10.12.2018 08:00:00 7,5 4,8 5,8 9,1 11,6 15 8 26 14 WNW 1028,2 20 0 0,4
10.12.2018 07:00:00 7,4 4,9 5,9 9,1 11,5 12 6 31 17 NW 1027,8 20 0 0,0
10.12.2018 06:00:00 7,5 5,0 6,0 9,1 11,5 7 4 25 14 NNW 1027,4 20 0 0,0
10.12.2018 05:00:00 7,5 5,1 5,7 9,1 11,5 6 4 13 7 NNW 1027,4 20 0 0,0
10.12.2018 04:00:00 7,0 5,3 5,3 9,2 11,5 10 5 30 16 ENE 1027,1 20 0 0,4
10.12.2018 03:00:00 7,5 5,1 6,3 9,2 11,5 17 9 38 20 NW 1027,2 19 0 0,4
10.12.2018 02:00:00 7,7 5,5 6,6 9,2 11,5 21 11 42 23 WNW 1026,0 14 0 1,4
10.12.2018 01:00:00 8,6 5,7 7,1 9,2 11,5 26 14 45 24 WNW 1025,4 10 0 0,0
10.12.2018 00:00:00 9,1 5,5 7,2 9,2 11,5 25 13 44 24 WNW 1024,7 20 0 0,0
09.12.2018 23:00:00 8,7 5,8 6,9 9,3 11,6 23 12 43 23 WNW 1023,8 20 0 0,4
09.12.2018 22:00:00 8,7 6,0 7,1 9,3 11,5 22 12 51 27 WNW 1022,9 20 0 0,4
09.12.2018 21:00:00 9,2 6,3 7,6 9,3 11,6 28 15 62 33 WNW 1021,8 12 0 0,2
09.12.2018 20:00:00 9,4 6,3 7,7 9,3 11,5 32 18 66 35 WNW 1020,6 8 0 0,0
09.12.2018 19:00:00 9,7 5,7 8,0 9,3 11,5 27 15 66 36 W 1020,1 18 0 0,0
09.12.2018 18:00:00 10,1 4,9 7,4 9,3 11,5 31 17 55 30 W 1019,0 20 0 0,0
09.12.2018 17:00:00 9,6 5,2 7,1 9,3 11,6 26 14 63 34 W 1018,6 19 0 0,2
09.12.2018 16:00:00 9,3 5,5 7,3 9,3 11,6 28 15 54 29 W 1018,2 13 0 0,8
09.12.2018 15:00:00 9,8 5,2 7,6 9,2 11,5 26 14 59 32 W 1018,3 14 25 0,2
09.12.2018 14:00:00 11,7 4,2 11,5 9,2 11,5 26 14 55 30 W 1017,6 19 52 0,0
09.12.2018 13:00:00 12,0 3,7 11,5 9,2 11,5 28 15 68 37 W 1017,6 20 60 0,0
09.12.2018 12:00:00 10,7 3,5 10,8 9,2 11,5 33 18 66 36 W 1018,0 20 60 0,0
09.12.2018 11:00:00 10,5 4,0 9,5 9,2 11,5 31 17 74 40 W 1018,6 19 48 0,0
09.12.2018 10:00:00 9,6 4,0 5,4 9,2 11,5 24 13 57 31 W 1018,1 20 33 0,0
09.12.2018 09:00:00 6,7 4,2 5,4 9,3 11,5 18 10 83 45 WNW 1018,0 20 0 2,9
09.12.2018 08:00:00 9,5 6,6 7,9 9,3 11,5 15 8 43 23 W 1016,9 9 0 1,2
09.12.2018 07:00:00 9,4 5,9 7,6 9,3 11,5 17 9 65 35 W 1016,9 20 0 1,2
09.12.2018 06:00:00 10,6 5,4 8,0 9,3 11,5 42 23 74 40 W 1015,8 15 0 0,2
09.12.2018 05:00:00 12,0 5,2 10,7 9,3 11,5 29 16 58 31 WSW 1015,1 20 0 0,0
09.12.2018 04:00:00 12,7 4,1 10,9 9,3 11,5 32 18 75 40 W 1015,4 20 0 0,0
09.12.2018 03:00:00 12,6 6,8 6,8 9,4 11,5 25 13 53 28 WSW 1015,7 20 0 0,0
09.12.2018 02:00:00 8,5 5,1 7,3 9,4 11,5 14 8 29 16 S 1016,6 20 0 0,0
09.12.2018 01:00:00 8,1 5,2 6,9 9,4 11,5 14 8 29 16 S 1017,1 20 0 0,0
09.12.2018 00:00:00 8,0 5,1 7,0 9,4 11,5 11 6 26 14 S 1017,7 20 0 0,0
08.12.2018 23:00:00 7,9 5,4 6,8 9,5 11,5 13 7 22 12 S 1018,5 20 0 0,0
08.12.2018 22:00:00 7,6 5,4 6,7 9,5 11,5 11 6 21 12 S 1019,0 20 0 0,0
08.12.2018 21:00:00 7,6 5,4 6,6 9,5 11,5 10 5 21 11 S 1019,7 20 0 0,0
08.12.2018 20:00:00 7,4 5,5 6,6 9,5 11,5 11 6 24 13 SSW 1020,7 14 0 0,4
08.12.2018 19:00:00 7,5 6,1 6,8 9,5 11,5 10 6 18 10 S 1020,9 20 0 0,0
08.12.2018 18:00:00 7,8 5,8 6,9 9,5 11,5 11 6 22 12 S 1021,7 15 0 0,2
08.12.2018 17:00:00 8,3 5,4 7,3 9,5 11,5 15 8 22 12 S 1021,7 20 0 0,0
08.12.2018 16:00:00 8,1 6,1 7,3 9,5 11,5 13 7 21 11 S 1022,6 13 0 0,0
08.12.2018 15:00:00 8,1 6,6 7,7 9,5 11,5 12 6 25 13 SSE 1022,5 20 0 0,2
08.12.2018 14:00:00 8,7 5,4 8,1 9,5 11,5 10 5 21 11 S 1023,0 20 0 0,0
08.12.2018 13:00:00 8,8 5,5 7,8 9,5 11,5 11 6 24 13 S 1023,2 20 0 0,0
08.12.2018 12:00:00 8,7 4,9 7,5 9,5 11,5 11 6 22 12 S 1023,5 20 5 0,0
08.12.2018 11:00:00 7,8 4,4 6,4 9,5 11,5 10 5 22 12 S 1024,0 20 0 0,2
08.12.2018 10:00:00 7,3 3,5 6,5 9,6 11,5 12 6 21 12 S 1023,9 19 0 0,0
08.12.2018 09:00:00 6,8 3,6 5,7 9,6 11,5 9 5 18 10 S 1023,8 20 0 0,0
08.12.2018 08:00:00 7,4 3,6 4,7 9,7 11,5 9 5 23 13 S 1023,4 20 0 0,0
08.12.2018 07:00:00 6,7 2,8 5,1 9,8 11,5 6 3 21 11 S 1023,3 20 0 0,0
08.12.2018 06:00:00 7,4 2,9 5,6 9,8 11,5 10 5 22 12 SSW 1022,9 20 0 0,0
08.12.2018 05:00:00 7,3 3,0 5,4 9,9 11,5 8 5 21 11 S 1023,0 20 0 0,0
08.12.2018 04:00:00 7,6 2,5 3,7 10,0 11,5 8 5 17 9 SSW 1023,3 20 0 0,0
08.12.2018 03:00:00 6,8 2,3 3,3 10,1 11,5 6 3 16 9 SW 1023,1 20 0 0,0
08.12.2018 02:00:00 7,5 2,6 4,8 10,1 11,5 8 4 24 13 WSW 1022,6 20 0 0,0
08.12.2018 01:00:00 7,5 3,0 5,2 10,2 11,5 4 2 33 18 W 1022,4 20 0 0,0
08.12.2018 00:00:00 7,8 3,3 6,1 10,3 11,5 12 7 42 23 W 1022,2 20 0 0,0
07.12.2018 23:00:00 7,4 3,6 4,6 10,4 11,5 16 9 36 19 W 1021,6 20 0 0,0
07.12.2018 22:00:00 6,7 3,5 5,3 10,3 11,4 31 17 58 31 WNW 1021,4 11 0 1,0
07.12.2018 21:00:00 10,7 4,2 9,7 10,4 11,5 21 11 55 30 W 1018,6 20 0 0,0
07.12.2018 20:00:00 11,3 4,5 8,9 10,4 11,5 27 15 58 31 W 1016,9 20 0 0,0
07.12.2018 19:00:00 11,4 7,7 9,3 10,3 11,4 12 6 27 14 SW 1016,5 20 0 0,4
07.12.2018 18:00:00 12,3 7,0 10,6 10,3 11,5 14 8 29 16 S 1015,0 20 0 0,0
07.12.2018 17:00:00 12,6 6,8 11,4 10,3 11,5 5 3 15 8 SSW 1015,0 20 0 0,0
07.12.2018 16:00:00 13,1 7,1 12,1 10,2 11,5 4 2 17 9 S 1015,5 20 0 0,0
07.12.2018 15:00:00 13,7 7,7 12,9 10,1 11,4 9 5 26 14 S 1015,8 20 12 0,0
07.12.2018 14:00:00 13,3 8,1 12,5 10,1 11,5 14 7 24 13 S 1017,0 20 4 0,0
07.12.2018 13:00:00 12,0 9,9 11,4 10,1 11,5 13 7 19 10 S 1018,9 16 0 0,0
07.12.2018 12:00:00 11,0 9,9 11,3 10,1 11,5 8 4 18 10 S 1020,3 7 1 0,0
07.12.2018 11:00:00 10,9 10,0 10,5 10,0 11,5 8 5 14 7 SE 1020,9 11 0 0,0
07.12.2018 10:00:00 10,5 10,2 10,0 10,0 11,5 3 2 8 4 S 1021,6 3,6 0 0,0
07.12.2018 09:00:00 10,1 9,8 9,9 10,0 11,5 5 3 10 5 SSE 1021,9 0,2 0 0,0
07.12.2018 08:00:00 10,1 9,8 9,7 10,0 11,4 8 4 12 7 SE 1022,3 3,7 0 0,0
07.12.2018 07:00:00 10,2 9,7 9,5 10,0 11,5 6 4 9 5 SE 1023,3 1,7 0 0,0
07.12.2018 06:00:00 10,3 9,4 9,5 10,0 11,4 0 0 6 3 N 1023,6 6 0 0,0
07.12.2018 05:00:00 10,4 9,2 9,3 10,0 11,4 5 3 10 5 S 1023,8 20 0 0,0
07.12.2018 04:00:00 10,8 8,6 9,7 10,0 11,5 4 2 11 6 NW 1024,0 20 0 0,0
07.12.2018 03:00:00 11,1 8,7 9,9 10,0 11,4 4 2 14 8 WNW 1024,7 20 0 0,0
07.12.2018 02:00:00 10,7 8,6 9,8 10,0 11,4 4 2 8 4 NW 1025,2 20 0 0,0
07.12.2018 01:00:00 10,7 9,9 9,6 10,0 11,4 4 2 10 6 S 1025,8 11 0 0,0
07.12.2018 00:00:00 11,0 10,5 10,2 10,0 11,5 6 3 9 5 SSE 1025,8 5 0 0,0
06.12.2018 23:00:00 11,1 10,6 10,5 9,9 11,4 4 2 11 6 SSE 1026,0 3,5 0 0,0
06.12.2018 22:00:00 11,3 10,8 10,6 9,9 11,4 7 4 11 6 SSE 1026,0 3,2 0 0,0
06.12.2018 21:00:00 11,6 11,0 10,9 9,9 11,4 4 2 14 8 S 1026,1 10 0 0,0
06.12.2018 20:00:00 11,9 10,8 10,5 9,8 11,4 4 2 11 6 SW 1026,0 9 0 0,0
06.12.2018 19:00:00 11,9 10,8 9,8 9,8 11,5 5 3 12 6 SSW 1025,7 18 0 0,0
06.12.2018 18:00:00 12,2 10,4 11,4 9,7 11,5 5 3 10 6 WSW 1025,2 20 0 0,2
06.12.2018 17:00:00 12,6 11,5 12,0 9,6 11,4 5 3 11 6 S 1024,5 18 0 0,0
06.12.2018 16:00:00 13,0 11,7 12,9 9,6 11,4 8 4 11 6 SE 1024,1 20 0 0,0
06.12.2018 15:00:00 13,1 11,5 13,4 9,5 11,4 7 4 10 6 SSE 1024,0 20 1 0,0
06.12.2018 14:00:00 13,2 11,6 13,8 9,4 11,4 6 3 10 5 SSE 1024,0 18 3 0,0
06.12.2018 13:00:00 12,5 10,9 12,3 9,3 11,4 4 2 8 4 SSE 1024,4 18 0 0,0
06.12.2018 12:00:00 11,3 10,2 11,6 9,3 11,4 6 3 8 5 SE 1024,2 11 0 0,0
06.12.2018 11:00:00 10,1 9,3 9,7 9,3 11,5 5 3 8 4 SE 1024,5 13 2 0,0
06.12.2018 10:00:00 9,3 8,8 8,8 9,2 11,4 5 3 10 5 ESE 1024,0 7 0 0,0
06.12.2018 09:00:00 8,9 8,4 8,4 9,2 11,4 5 3 14 8 SE 1023,4 7 0 0,6
06.12.2018 08:00:00 8,7 8,1 8,3 9,2 11,4 9 5 13 7 SSE 1022,1 11 0 0,0
06.12.2018 07:00:00 8,7 7,9 8,3 9,2 11,4 5 3 13 7 S 1021,6 9 0 0,6
06.12.2018 06:00:00 8,8 7,9 8,2 9,3 11,4 8 4 16 8 S 1021,6 7 0 1,8
06.12.2018 05:00:00 8,9 7,8 7,9 9,2 11,4 8 5 14 8 S 1021,6 10 0 0,8
06.12.2018 04:00:00 8,2 7,1 7,1 9,3 11,4 5 3 11 6 S 1021,6 13 0 0,0
06.12.2018 03:00:00 7,6 7,0 5,1 9,3 11,4 8 4 12 6 ESE 1022,0 7 0 0,0
06.12.2018 02:00:00 8,5 7,3 7,7 9,3 11,4 6 4 14 8 SSE 1022,2 14 0 0,0
06.12.2018 01:00:00 8,4 7,3 7,3 9,4 11,4 13 7 24 13 SSE 1021,8 12 0 1,2
06.12.2018 00:00:00 7,7 6,6 6,5 9,4 11,4 8 5 17 9 ESE 1021,7 13 0 0,0

tt = temperature
td = dewpoint
tt 5cm = temperature 5cm
tt -20cm = temperature -20cm
tt -100cm = temperature -100cm
ff = wind speed
fx = gusts
dd = wind direction
ppp = reduced air pressure
vv = visibility
sd = sunshine duration
rr = precipitation

Next stations